Location: Krasnoyarskiy Pitomnik
(51.1333°N, 71.6167°E)
Time: 10:42:45
(UTC+00:00)

Courier 1B Rocket - Visible Passes

Search period start: 17 April 2024 00:00
Search period end: 27 April 2024 00:00
Orbit: 920 x 1201 km, 28.2° (Epoch: 16 April)

Date Brightness Start Highest point End Pass type
(mag) Time Alt. Az. Time Alt. Az. Time Alt. Az.
24 Apr 7.2 22:57:34 10° S 22:59:23 11° S 23:01:11 10° SSE visible
25 Apr 7.2 21:57:35 10° S 21:58:36 10° S 21:59:44 10° SSE visible
26 Apr 7.1 22:47:32 10° SSW 22:49:48 11° S 22:52:01 10° SSE visible
